TimeEDT,TemperatureF,Dew PointF,Humidity,Sea Level PressureIn,VisibilityMPH,Wind Direction,Wind SpeedMPH,Gust SpeedMPH,PrecipitationIn,Events,Conditions,WindDirDegrees,DateUTC
12:51 AM,66.9,64.0,90,30.01,7.0,ESE,3.5,-,N/A,,Partly Cloudy,110,2013-06-16 04:51:00
1:51 AM,64.9,63.0,93,30.00,8.0,Calm,Calm,-,N/A,,Partly Cloudy,0,2013-06-16 05:51:00
2:51 AM,64.9,62.1,90,29.99,10.0,South,3.5,-,N/A,,Clear,180,2013-06-16 06:51:00
3:51 AM,66.0,61.0,84,29.99,10.0,Calm,Calm,-,N/A,,Clear,0,2013-06-16 07:51:00
4:51 AM,66.9,61.0,81,29.99,10.0,SSW,5.8,-,N/A,,Mostly Cloudy,210,2013-06-16 08:51:00
5:51 AM,66.9,62.1,84,30.00,10.0,SW,3.5,-,N/A,,Partly Cloudy,220,2013-06-16 09:51:00
6:51 AM,66.9,62.1,84,30.01,10.0,SSW,4.6,-,N/A,,Scattered Clouds,210,2013-06-16 10:51:00
7:51 AM,70.0,63.0,78,30.01,10.0,SSW,6.9,-,N/A,,Partly Cloudy,200,2013-06-16 11:51:00
8:51 AM,71.1,64.0,78,30.04,10.0,SW,4.6,-,N/A,,Mostly Cloudy,230,2013-06-16 12:51:00
9:51 AM,73.9,64.9,73,30.03,10.0,SSW,5.8,-,N/A,,Overcast,210,2013-06-16 13:51:00
10:51 AM,75.9,64.9,69,30.04,10.0,West,6.9,-,N/A,,Overcast,270,2013-06-16 14:51:00
11:46 AM,75.2,66.2,73,30.07,10.0,NW,5.8,-,0.00,,Mostly Cloudy,320,2013-06-16 15:46:00
11:51 AM,75.9,66.0,71,30.05,10.0,West,8.1,-,0.00,,Mostly Cloudy,280,2013-06-16 15:51:00
12:51 PM,78.1,66.0,66,30.03,10.0,West,6.9,-,N/A,,Scattered Clouds,260,2013-06-16 16:51:00
1:51 PM,78.1,66.0,66,30.00,10.0,SSW,6.9,-,N/A,,Clear,200,2013-06-16 17:51:00
2:51 PM,80.1,66.9,64,30.00,10.0,West,5.8,-,N/A,,Overcast,260,2013-06-16 18:51:00
3:51 PM,80.1,66.9,64,29.99,10.0,SW,4.6,-,N/A,,Mostly Cloudy,220,2013-06-16 19:51:00
4:51 PM,80.1,66.9,64,29.98,10.0,WSW,4.6,-,0.00,Rain,Light Rain,250,2013-06-16 20:51:00
5:51 PM,78.1,69.1,74,29.97,10.0,Calm,Calm,-,0.00,Rain,Light Rain,0,2013-06-16 21:51:00
6:51 PM,75.0,71.1,87,29.99,5.0,Calm,Calm,-,0.03,Rain,Light Rain,0,2013-06-16 22:51:00
7:07 PM,73.4,71.6,94,30.00,2.5,Calm,Calm,-,0.02,Rain,Light Rain,0,2013-06-16 23:07:00
7:15 PM,73.4,71.6,94,30.00,4.0,Calm,Calm,-,0.03,Rain,Light Rain,0,2013-06-16 23:15:00
7:51 PM,73.0,71.1,93,29.97,6.0,Variable,4.6,-,0.04,Rain,Light Rain,0,2013-06-16 23:51:00
8:51 PM,71.1,66.9,87,29.99,10.0,SSW,5.8,-,0.00,,Partly Cloudy,210,2013-06-17 00:51:00
9:51 PM,69.1,66.9,93,29.98,8.0,SSE,4.6,-,0.00,Rain,Light Rain,160,2013-06-17 01:51:00
10:51 PM,68.0,66.0,93,29.99,10.0,SSW,3.5,-,0.00,,Partly Cloudy,200,2013-06-17 02:51:00
11:42 PM,68.0,66.2,94,30.01,7.0,South,4.6,-,N/A,,Partly Cloudy,190,2013-06-17 03:42:00
11:51 PM,68.0,66.0,93,29.99,7.0,SSW,4.6,-,N/A,,Partly Cloudy,200,2013-06-17 03:51:00